CRCA-Riverwatch is now Calusa Waterkeeper
Menu
Tidal Tidal Caloosahatchee Data Set #1

Basic water quality data are being collected by the Calusa Waterkeeper and Rangers in the Tidal Caloosahatchee. These data include salinity, temperature and dissolved oxygen.




Tidal Table 1 (Print version)
Table
Zone Date Time Station ID Latitude Longitude Parameter Unit Result
Tidal Caloosahatchee 5/26/2017 1000-1200 A surface 26°43'21.87"N 81°41'47.79"W Temperature Celsius 28.8
Tidal Caloosahatchee 5/26/2017 1000-1200 A mid depth 26°43'21.87"N 81°41'47.79"W Temperature Celsius 28.9
Tidal Caloosahatchee 5/26/2017 1000-1200 A surface 26°43'21.87"N 81°41'47.79"W D.O. ppm 3.53
Tidal Caloosahatchee 5/26/2017 1000-1200 A mid depth 26°43'21.87"N 81°41'47.79"W D.O. ppm 2.82
Tidal Caloosahatchee 5/26/2017 1000-1200 A surface 26°43'21.87"N 81°41'47.79"W D.O. % sat 47.1
Tidal Caloosahatchee 5/26/2017 1000-1200 A mid depth 26°43'21.87"N 81°41'47.79"W D.O. % sat 35.4
Tidal Caloosahatchee 5/26/2017 1000-1200 A surface 26°43'21.87"N 81°41'47.79"W Salinity PSU 5.3
Tidal Caloosahatchee 5/26/2017 1000-1200 A mid depth 26°43'21.87"N 81°41'47.79"W Salinity PSU 6.1
Tidal Caloosahatchee 5/26/2017 1000-1200 B surface 26°43'29.48"N 81°42'24.01"W Temperature Celsius 28.7
Tidal Caloosahatchee 5/26/2017 1000-1200 B mid depth 26°43'29.48"N 81°42'24.01"W Temperature Celsius 29.2
Tidal Caloosahatchee 5/26/2017 1000-1200 B surface 26°43'29.48"N 81°42'24.01"W D.O. ppm 5.83
Tidal Caloosahatchee 5/26/2017 1000-1200 B mid depth 26°43'29.48"N 81°42'24.01"W D.O. ppm 4.26
Tidal Caloosahatchee 5/26/2017 1000-1200 B surface 26°43'29.48"N 81°42'24.01"W D.O. %sat 77
Tidal Caloosahatchee 5/26/2017 1000-1200 B mid depth 26°43'29.48"N 81°42'24.01"W D.O. % sat 57.6
Tidal Caloosahatchee 5/26/2017 1000-1200 B surface 26°43'29.48"N 81°42'24.01"W Salinity PSU 5.0
Tidal Caloosahatchee 5/26/2017 1000-1200 B mid depth 26°43'29.48"N 81°42'24.01"W Salinity PSU 7.1
Tidal Caloosahatchee 5/26/2017 1000-1200 C surface 26°43'9.42"N 81°44'22.02"W Temperature Celsius 28.7
Tidal Caloosahatchee 5/26/2017 1000-1200 C mid depth 26°43'9.42"N 81°44'22.02"W Temperature Celsius 28.8
Tidal Caloosahatchee 5/26/2017 1000-1200 C surface 26°43'9.42"N 81°44'22.02"W D.O. ppm 6.39
Tidal Caloosahatchee 5/26/2017 1000-1200 C mid depth 26°43'9.42"N 81°44'22.02"W D.O. ppm 4.62
Tidal Caloosahatchee 5/26/2017 1000-1200 C surface 26°43'9.42"N 81°44'22.02"W D.O. %sat 84.7
Tidal Caloosahatchee 5/26/2017 1000-1200 C mid depth 26°43'9.42"N 81°44'22.02"W D.O. % sat 61.8
Tidal Caloosahatchee 5/26/2017 1000-1200 C surface 26°43'9.42"N 81°44'22.02"W Salinity PSU 5.6
Tidal Caloosahatchee 5/26/2017 1000-1200 C mid depth 26°43'9.42"N 81°44'22.02"W Salinity PSU 7.1
Tidal Caloosahatchee 5/26/2017 1000-1200 D surface 26°42'59.86"N 81°45'42.93"W Temperature Celsius 28.9
Tidal Caloosahatchee 5/26/2017 1000-1200 D mid depth 26°42'59.86"N 81°45'42.93"W Temperature Celsius 28.3
Tidal Caloosahatchee 5/26/2017 1000-1200 D surface 26°42'59.86"N 81°45'42.93"W D.O. ppm 6.55
Tidal Caloosahatchee 5/26/2017 1000-1200 D mid depth 26°42'59.86"N 81°45'42.93"W D.O. ppm 4.63
Tidal Caloosahatchee 5/26/2017 1000-1200 D surface 26°42'59.86"N 81°45'42.93"W D.O. %sat 87.4
Tidal Caloosahatchee 5/26/2017 1000-1200 D mid depth 26°42'59.86"N 81°45'42.93"W D.O. % sat 61.4
Tidal Caloosahatchee 5/26/2017 1000-1200 D surface 26°42'59.86"N 81°45'42.93"W Salinity PSU 6.0
Tidal Caloosahatchee 5/26/2017 1000-1200 D mid depth 26°42'59.86"N 81°45'42.93"W Salinity PSU 7.2
Tidal Caloosahatchee 5/26/2017 1000-1200 E surface 26°41'58.73"N 81°47'7.22"W Temperature Celsius 28.6
Tidal Caloosahatchee 5/26/2017 1000-1200 E mid depth 26°41'58.73"N 81°47'7.22"W Temperature Celsius 29.4
Tidal Caloosahatchee 5/26/2017 1000-1200 E surface 26°41'58.73"N 81°47'7.22"W D.O. ppm 6.43
Tidal Caloosahatchee 5/26/2017 1000-1200 E mid depth 26°41'58.73"N 81°47'7.22"W D.O. ppm 5.42
Tidal Caloosahatchee 5/26/2017 1000-1200 E surface 26°41'58.73"N 81°47'7.22"W D.O. %sat 86.1
Tidal Caloosahatchee 5/26/2017 1000-1200 E mid depth 26°41'58.73"N 81°47'7.22"W D.O. % sat 73.4
Tidal Caloosahatchee 5/26/2017 1000-1200 E surface 26°41'58.73"N 81°47'7.22"W Salinity PSU 7.2
Tidal Caloosahatchee 5/26/2017 1000-1200 E mid depth 26°41'58.73"N 81°47'7.22"W Salinity PSU 7.9
Tidal Caloosahatchee 5/26/2017 1000-1200 F surface 26°41'39.28"N 81°47'46.33"W Temperature Celsius 32.9
Tidal Caloosahatchee 5/26/2017 1000-1200 F mid depth 26°41'39.28"N 81°47'46.33"W Temperature Celsius 32.8
Tidal Caloosahatchee 5/26/2017 1000-1200 F surface 26°41'39.28"N 81°47'46.33"W D.O. ppm 5.49
Tidal Caloosahatchee 5/26/2017 1000-1200 F mid depth 26°41'39.28"N 81°47'46.33"W D.O. ppm 5.32
Tidal Caloosahatchee 5/26/2017 1000-1200 F surface 26°41'39.28"N 81°47'46.33"W D.O. %sat 79.4
Tidal Caloosahatchee 5/26/2017 1000-1200 F mid depth 26°41'39.28"N 81°47'46.33"W D.O. % sat 76.6
Tidal Caloosahatchee 5/26/2017 1000-1200 F surface 26°41'39.28"N 81°47'46.33"W Salinity PSU 8.2
Tidal Caloosahatchee 5/26/2017 1000-1200 F mid depth 26°41'39.28"N 81°47'46.33"W Salinity PSU 8.1
Tidal Caloosahatchee 5/26/2017 1000-1200 G surface 26°41'45.57"N 81°48'40.23"W Temperature Celsius 31.5
Tidal Caloosahatchee 5/26/2017 1000-1200 G mid depth 26°41'45.57"N 81°48'40.23"W Temperature Celsius 29.3
Tidal Caloosahatchee 5/26/2017 1000-1200 G surface 26°41'45.57"N 81°48'40.23"W D.O. ppm 5.57
Tidal Caloosahatchee 5/26/2017 1000-1200 G mid depth 26°41'45.57"N 81°48'40.23"W D.O. ppm 4.72
Tidal Caloosahatchee 5/26/2017 1000-1200 G surface 26°41'45.57"N 81°48'40.23"W D.O. %sat 78.9
Tidal Caloosahatchee 5/26/2017 1000-1200 G mid depth 26°41'45.57"N 81°48'40.23"W D.O. % sat 64.2
Tidal Caloosahatchee 5/26/2017 1000-1200 G surface 26°41'45.57"N 81°48'40.23"W Salinity PSU 8.2
Tidal Caloosahatchee 5/26/2017 1000-1200 G mid depth 26°41'45.57"N 81°48'40.23"W Salinity PSU 8.6


Calusa Waterkeeper is a non-profit organization dedicated to the protection of the Caloosahatchee River & Estuary, Lake Okeechobee, Nicodemus Slough, Charlotte Harbor, Estero Bay, the near-shore waters of Lee County, and their watersheds, through education and promotion of responsible use and enjoyment by all people.
Contact us
239-444-8584
info@CalusaWaterkeeper.org
Address
P.O. Box 1165
Ft. Myers, FL 33902
Membership Data and Governance Documents and Newsletters
Copyright © 2017 Calusa Waterkeeper.

Web Page Design, Software, and News Postings
Copyright © 2017 Southern DataStream, Inc. All rights reserved.

CRCA "Riverwatch" is a non-profit organization dedicated to the protection of the Caloosahatchee River and its watershed, through education and promotion of responsible use and enjoyment by all people.



Contact us
239-245-9954
riverwatch@caloosahatchee.org



Address
P.O. Box 2199
LaBelle, FL 33935

Membership Data and Governance Documents
Copyright © 2015 Caloosahatchee River Citizens Association, Inc.


Web Page Design, Software, and News Postings
Copyright © 2015 Southern DataStream, Inc. All rights reserved.